Location: Hylvaty SDH
(49.9612°N, 16.4057°E)
Time: 09:39:47
(UTC+01:00)

A-11 Canister half - All Passes

Search period start: 23 January 2020 00:00
Search period end: 02 February 2020 00:00
Orbit: 1525 x 1684 km, 47.3° (Epoch: 22 January)

Date Brightness Start Highest point End Pass type
(mag) Time Alt. Az. Time Alt. Az. Time Alt. Az.
23 Jan - 00:36:53 10° W 00:45:26 36° SW 00:54:13 10° SSE night (unlit)
23 Jan - 02:47:22 10° WSW 02:48:11 10° WSW 02:49:03 10° SW night (unlit)
23 Jan - 16:01:54 10° SSE 16:07:27 18° SE 16:13:04 10° E daylight
23 Jan - 18:01:45 10° SW 18:10:33 48° SSE 18:19:36 10° ENE visible
23 Jan - 20:05:30 10° WSW 20:14:55 75° S 20:24:40 10° E visible
23 Jan - 22:10:14 10° W 22:19:43 69° SSW 22:29:32 10° ESE visible
24 Jan - 00:15:14 10° W 00:23:51 38° SW 00:32:42 10° SSE night (unlit)
24 Jan - 02:24:18 10° WSW 02:26:40 11° WSW 02:29:04 10° SW night (unlit)
24 Jan - 15:40:43 10° SSE 15:45:56 16° SE 15:51:12 10° E daylight
24 Jan - 17:40:15 10° SW 17:48:58 46° SSE 17:57:56 10° ENE visible
24 Jan - 19:43:53 10° WSW 19:53:17 75° S 20:03:01 10° E visible
24 Jan - 21:48:37 10° W 21:58:05 70° SSW 22:07:54 10° ESE visible
24 Jan - 23:53:34 10° W 00:02:16 39° SW 00:11:12 10° SSE visible
25 Jan - 02:01:56 10° WSW 02:05:09 12° WSW 02:08:24 10° SW night (unlit)
25 Jan - 15:19:36 10° SSE 15:24:25 15° SE 15:29:16 10° E daylight
25 Jan - 17:18:44 10° SW 17:27:24 45° SSE 17:36:16 10° ENE visible
25 Jan - 19:22:17 10° WSW 19:31:39 74° S 19:41:20 10° E visible
25 Jan - 21:26:59 10° W 21:36:28 71° SSW 21:46:14 10° ESE visible
25 Jan - 23:31:56 10° W 23:40:40 40° SW 23:49:40 10° SSE visible
26 Jan - 01:39:46 10° W 01:43:37 13° WSW 01:47:30 10° SSW night (unlit)
26 Jan - 14:58:32 10° SSE 15:02:54 14° SE 15:07:19 10° E daylight
26 Jan - 16:57:14 10° SSW 17:05:49 43° SE 17:14:35 10° ENE visible
26 Jan - 19:00:41 10° WSW 19:10:02 73° SSE 19:19:40 10° E visible
26 Jan - 21:05:22 10° W 21:14:49 72° SSW 21:24:36 10° ESE visible
26 Jan - 23:10:17 10° WNW 23:19:04 42° SW 23:28:07 10° SSE visible
27 Jan - 01:17:43 10° W 01:22:05 14° SW 01:26:30 10° SSW night (unlit)
27 Jan - 14:37:32 10° SSE 14:41:24 13° SE 14:45:17 10° E daylight
27 Jan - 16:35:45 10° SSW 16:44:14 42° SE 16:52:55 10° ENE daylight
27 Jan - 18:39:05 10° WSW 18:48:24 72° SSE 18:58:01 10° E visible
27 Jan - 20:43:46 10° W 20:53:11 73° SSW 21:02:57 10° ESE visible
27 Jan - 22:48:38 10° WNW 22:57:29 43° SW 23:06:35 10° SSE visible
28 Jan - 00:55:45 10° W 01:00:33 15° SW 01:05:25 10° SSW night (unlit)
28 Jan - 14:16:38 10° SE 14:19:53 12° ESE 14:23:10 10° ESE daylight
28 Jan - 16:14:16 10° SSW 16:22:40 40° SE 16:31:15 10° E daylight
28 Jan - 18:17:30 10° WSW 18:26:47 71° SSE 18:36:21 10° E visible
28 Jan - 20:22:08 10° W 20:31:33 73° S 20:41:17 10° ESE visible
28 Jan - 22:27:00 10° WNW 22:35:53 45° SSW 22:45:02 10° SE visible
29 Jan - 00:33:50 10° W 00:39:00 16° SW 00:44:16 10° SSW night (unlit)
29 Jan - 13:55:55 10° SE 13:58:23 11° ESE 14:00:51 10° ESE daylight
29 Jan - 15:52:47 10° SSW 16:01:06 39° SE 16:09:34 10° E daylight
29 Jan - 17:55:54 10° WSW 18:05:09 70° SSE 18:14:41 10° E visible
29 Jan - 20:00:31 10° W 20:09:55 74° S 20:19:38 10° ESE visible
29 Jan - 22:05:22 10° WNW 22:14:17 46° SSW 22:23:28 10° SE visible
30 Jan - 00:11:57 10° W 00:17:28 17° SW 00:23:04 10° SSW visible
30 Jan - 13:35:43 10° SE 13:36:53 10° ESE 13:38:02 10° ESE daylight
30 Jan - 15:31:19 10° SSW 15:39:33 37° SE 15:47:53 10° E daylight
30 Jan - 17:34:18 10° WSW 17:43:32 69° SSE 17:53:02 10° E visible
30 Jan - 19:38:54 10° W 19:48:17 75° S 19:57:59 10° ESE visible
30 Jan - 21:43:44 10° WNW 21:52:41 48° SSW 22:01:55 10° SE visible
30 Jan - 23:50:07 10° W 23:55:55 18° SW 00:01:51 10° SSW visible
31 Jan - 15:09:52 10° SSW 15:17:59 36° SE 15:26:13 10° E daylight
31 Jan - 17:12:43 10° WSW 17:21:55 68° SSE 17:31:22 10° E visible
31 Jan - 19:17:17 10° W 19:26:40 75° S 19:36:19 10° ESE visible
31 Jan - 21:22:06 10° W 21:31:05 49° SSW 21:40:21 10° SE visible
31 Jan - 23:28:18 10° W 23:34:22 19° SW 23:40:34 10° SSW visible
01 Feb - 14:48:24 10° SSW 14:56:25 34° SE 15:04:31 10° E daylight
01 Feb - 16:51:08 10° WSW 17:00:19 67° SSE 17:09:43 10° E daylight
01 Feb - 18:55:40 10° W 19:05:01 76° S 19:14:40 10° ESE visible
01 Feb - 21:00:29 10° W 21:09:29 50° SSW 21:18:46 10° SE visible
01 Feb - 23:06:31 10° W 23:12:50 20° SW 23:19:17 10° S visible
